Regional Weather Roundup
Issued by NWS

Home | Current Version | Previous Version | Text Only | Print | Product List | Glossary On
Versions: 1 2 3 4 5 6 7 8 9 10 11 12 13 14 15 16 17 18 19 20 21 22 23 24 25 26 27 28 29 30 31 32 33 34 35 36 37 38 39 40 41 42 43 44 45 46 47 48 49 50
190
ASUS42 KTBW 201515
RWRFL
FLORIDA REGIONAL WEATHER ROUNDUP
NATIONAL WEATHER SERVICE TAMPA BAY RUSKIN FL
1000 AM EST FRI JAN 20 2017

NOTE: "FAIR" INDICATES FEW OR NO CLOUDS BELOW 12,000 FEET WITH NO
SIGNIFICANT WEATHER AND/OR OBSTRUCTIONS TO VISIBILITY.

FLZ001>010-012>015-112-114-115-201600-
PANHANDLE FLORIDA

CITY           SKY/WX    TMP DP  RH WIND       PRES   REMARKS
PENSACOLA      CLOUDY    72  68  87 SW6       29.89R
PENSACOLA NAS  PTSUNNY   70  68  93 SW6       29.89R
MILTON NAS     PTSUNNY   68  66  93 CALM      29.89
CRESTVIEW      PTSUNNY   67  65  93 CALM      29.92R
DUKE FIELD     PTSUNNY   68  68 100 SW5       29.89R
VALPARAISO     PTSUNNY   72  68  87 SW5       29.89R
TRI COUNTY     PTSUNNY   69  67  93 VRB3      29.91R
PANAMA CITY    FAIR      72  67  84 S7        29.90R
TYNDALL AFB    SUNNY     73  68  83 S9        29.91R
APALACHICOLA   SUNNY     72  70  93 SW10      29.92R

STATION/POSITION SKY/WX   TEMP    WIND        PRES    WAVE   SWELL
                          AIR SEA DIR/SP/G            HT/PER HT/PER
                          (F)     (DEG/KT/KT) (MB)    (FT/S) (FT/S)
30.1N   87.6W              68 66  190/  6/  8 1011.7R   3/ 6   3/ 6
28.8N   86.0W              75 75              1012.9    4/ 6
PANAMA CITY BEAC           68 67  120/  8/  9 1012.9R
TOWER C                    71     200/ 16/ 16 1014.1R
28.5N   84.5W              72 73  190/  8/ 10 1014.7R   3/ 6   3/ 6

$$
FLZ011-016>038-118-127-128-134-139-239-201600-
NORTH FLORIDA

CITY           SKY/WX    TMP DP  RH WIND       PRES   REMARKS
MARIANNA       MOSUNNY   69  66  90 S8        29.90R
TALLAHASSEE    MOSUNNY   69  66  90 SW9       29.92R
PERRY          SUNNY     71  65  81 SW7       29.95R
CROSS CITY     PTSUNNY   68  64  88 S7        29.97R
LAKE CITY      CLOUDY    64  64 100 SW10      29.95R
GAINESVILLE    CLOUDY    69  63  81 SW10      29.97R
WILLISTON      SUNNY     72  64  78 S8        29.98R
PALATKA        FAIR      68  63  83 SW7       29.97S
MAYPORT NAS    MOSUNNY   71  63  75 SW10      29.95R
JACKSONVILLE   MOSUNNY   72  63  73 SW13      29.93R
JAX NAS        MOSUNNY   68  62  81 SW10      29.96R
FERNANDINA BEA FAIR      73  64  73 SW12      29.93R
ST AUGUSTINE   CLOUDY    70  61  73 SW10      29.97R
PALM COAST     SUNNY     68  63  83 SW8       29.97R

STATION/POSITION SKY/WX   TEMP    WIND        PRES    WAVE   SWELL
                          AIR SEA DIR/SP/G            HT/PER HT/PER
                          (F)     (DEG/KT/KT) (MB)    (FT/S) (FT/S)
SHELL POINT      NOT AVBL
KEATON BEACH               67     220/  3/  5 1014.0R
CEDAR KEY                  67     230/  5/  9 1014.6R
FERNANDINA                 70 66  200/  4/ 10 1014.5R
30.7N   81.3W                 63                N/A     2/ 9
MAYPORT                    69 64  230/  8/ 11 1014.4R
31.4N   80.9W              62 59  170/  8/  8 1012.6    2/ 9   2/ 9
ST AUGUSTINE               69 63  220/  7/  9 1015.4R

$$
FLZ040-043>046-052-053-057-058-063-144-201600-
INTERIOR CENTRAL FLORIDA

CITY           SKY/WX    TMP DP  RH WIND       PRES   REMARKS
OCALA          PTSUNNY   66  61  82 SW7       29.99R
THE VILLAGES     N/A     70  70 100 MISG      29.89R
LEESBURG       CLOUDY    70  63  78 SW10      29.99R
SANFORD        SUNNY     73  61  65 SW13      29.98S
ORLANDO EXEC   SUNNY     72  62  71 SW13      29.99S
ORLANDO INTL   MOSUNNY   72  62  71 S14       30.00S
KISSIMMEE      SUNNY     72  63  73 S7        30.02S
WINTER HAVEN   SUNNY     71  60  68 SW9       30.03R
LAKELAND       SUNNY     72  63  73 S14       30.02R
BARTOW         SUNNY     70  63  78 S12       30.02R
OKEECHOBEE     SUNNY     72  63  73 S5        30.04R

$$
FLZ041-047-054-059-064-141-147-201600-
EAST CENTRAL FLORIDA

CITY           SKY/WX    TMP DP  RH WIND       PRES   REMARKS
ORMOND BEACH   SUNNY     70  63  78 S12       29.97R
DAYTONA BEACH  CLOUDY    70  63  78 S9        29.97S
DELAND         CLOUDY    72  63  73 S12       29.97S
NEW SMYRNA BEA MOSUNNY   70  66  88 SW13      29.98R
JFK SPACE CTR  SUNNY     71  64  80 SW13      30.00R
TITUSVILLE     SUNNY     70  66  88 S12       30.02R
CAPE CANAVERAL SUNNY     72  62  70 SW10      30.01R
PATRICK AFB    SUNNY     73  63  72 SW12      30.02R
MELBOURNE      SUNNY     72  63  73 SW10      30.02R
VERO BEACH     SUNNY     73  64  73 SW8       30.03R
FT PIERCE      SUNNY     74  64  71 SW6       30.04R
STUART         SUNNY     75  64  69 SW5       30.04R

STATION/POSITION SKY/WX   TEMP    WIND        PRES    WAVE   SWELL
                          AIR SEA DIR/SP/G            HT/PER HT/PER
                          (F)     (DEG/KT/KT) (MB)    (FT/S) (FT/S)
TRIDENT PIER     NOT AVBL
28.4N   80.5W                 70                N/A     2/10
27.5N   80.2W                 76                N/A     2/10   2/11

$$
FLZ050-056-061-142-242-148-248-149-249-151-251-155-255-
160-260-201600-
WEST CENTRAL FLORIDA

CITY           SKY/WX    TMP DP  RH WIND       PRES   REMARKS
CRYSTAL RIVER  FAIR      73  63  68 SW6       29.98R
INVERNESS      PTSUNNY   70  66  88 S6        29.99R
BROOKSVILLE    CLOUDY    73  66  78 S10       30.01S
CLEARWATER AIR HVY RAIN  68  64  88 CALM      30.02R
ST PETE CLEARW CLOUDY    72  63  73 W7        30.02R
TAMPA INTL     PTSUNNY   73  63  70 SW9       30.02R
PLANT CITY     SUNNY     73  64  73 S10       30.03S
MACDILL AFB    CLOUDY    69  68  99 W8        30.01R
PETER O KNIGHT PTSUNNY   72  66  83 SW6       30.02R
ST PETERSBURG  CLOUDY    69  64  84 S6        30.00R
SARASOTA       SUNNY     73  61  65 S10       30.00R
VENICE         FAIR      75  63  64 S10       30.02R

STATION/POSITION SKY/WX   TEMP    WIND        PRES    WAVE   SWELL
                          AIR SEA DIR/SP/G            HT/PER HT/PER
                          (F)     (DEG/KT/KT) (MB)    (FT/S) (FT/S)
27.3N   84.2W                 78                N/A     3/ 5
CLEARWATER BEACH           67 67  210/  8/ 10 1016.6R
MIDDLE TAMPA BAY           70     180/  7/  8 1016.4R
VENICE                     70 68  140/  7/  9 1015.5R

$$
FLZ066-069-070-075>078-162-262-165-265-201600-
SOUTHWEST FLORIDA AND KEYS

CITY           SKY/WX    TMP DP  RH WIND       PRES   REMARKS
PUNTA GORDA    SUNNY     72  63  73 S7        30.04R
FT MYERS       SUNNY     73  64  73 S7        30.02R
SOUTHWEST INTL SUNNY     72  62  71 SE9       30.03R
NAPLES         SUNNY     73  62  68 SE6       30.03R
MARCO ISLAND   SUNNY     61  61 100 E6        30.03R
MARATHON       SUNNY     81  67  62 S6        30.03R
KEY WEST NAS   MOSUNNY   78  64  61 S8        30.03R
KEY WEST INTL  SUNNY     77  66  68 S7        30.03R

STATION/POSITION SKY/WX   TEMP    WIND        PRES    WAVE   SWELL
                          AIR SEA DIR/SP/G            HT/PER HT/PER
                          (F)     (DEG/KT/KT) (MB)    (FT/S) (FT/S)
NAPLES                        70              1016.6R
26.0N   85.6W              76 75  160/ 12/ 12 1015.2R   2/ 4
DRY TORTUGAS               76     180/ 10/ 10 1016.5R
SAND KEY                   75     200/  8/ 10 1017.3R
LONG KEY                   75 74   CALM  /  2 1016.8R

$$
FLZ067-068-071>074-168-172>174-201600-
SOUTHEAST FLORIDA

CITY           SKY/WX    TMP DP  RH WIND       PRES   REMARKS
W PALM BEACH   PTSUNNY   74  61  63 S5        30.04R
BOCA RATON     SUNNY     75  61  60 S5        30.04R
FT LAUDER-EXEC MOSUNNY   75  61  61 S5        30.04R
FT LAUDERDALE  MOSUNNY   74  62  66 VRB5      30.04R
POMPANO BEACH  SUNNY     75  61  61 S6        30.04R
PEMBROKE PINES SUNNY     74  63  68 VRB5      30.05R
OPA LOCKA      SUNNY     75  62  64 CALM      30.05R
MIAMI          MOSUNNY   77  63  61 VRB3      30.05R
WEST KENDALL   SUNNY     76  63  64 CALM      30.04R
HOMESTEAD      SUNNY     76  68  77 CALM      30.04R

STATION/POSITION SKY/WX   TEMP    WIND        PRES    WAVE   SWELL
                          AIR SEA DIR/SP/G            HT/PER HT/PER
                          (F)     (DEG/KT/KT) (MB)    (FT/S) (FT/S)
PORT EVERGLADES            74     110/  2/  4 1017.3R
VIRGINIA KEY               77 79   CALM  /  1 1017.7R
LAKE WORTH                 72 76  180/  4/  5 1016.8R
FOWEY ROCKS                77 75  170/  2/  2 1017.4R

$$





USA.gov is the U.S. government's official web portal to all federal, state and local government web resources and services.